TimePDT,TemperatureF,Dew PointF,Humidity,Sea Level PressureIn,VisibilityMPH,Wind Direction,Wind SpeedMPH,Gust SpeedMPH,PrecipitationIn,Events,Conditions,WindDirDegrees,DateUTC
12:53 AM,43.0,39.9,89,29.57,8.0,SSE,8.1,16.1,0.07,Rain,Light Rain,150,2013-03-20 07:53:00
1:53 AM,44.1,41.0,89,29.55,10.0,SE,8.1,16.1,0.04,Rain,Light Rain,140,2013-03-20 08:53:00
2:53 AM,44.1,41.0,89,29.51,10.0,Variable,5.8,-,0.01,Rain,Light Rain,0,2013-03-20 09:53:00
3:32 AM,44.6,41.0,87,29.48,10.0,ESE,12.7,-,0.01,Rain,Light Rain,120,2013-03-20 10:32:00
3:53 AM,44.1,41.0,89,29.48,10.0,SE,5.8,16.1,0.01,Rain,Light Rain,130,2013-03-20 10:53:00
4:23 AM,44.6,41.0,87,29.46,10.0,Variable,6.9,-,0.00,Rain,Light Rain,0,2013-03-20 11:23:00
4:53 AM,44.1,41.0,89,29.44,10.0,SE,6.9,-,0.01,Rain,Light Rain,140,2013-03-20 11:53:00
5:53 AM,44.1,42.1,93,29.42,7.0,SE,6.9,-,0.07,Rain,Light Rain,140,2013-03-20 12:53:00
6:53 AM,45.0,42.1,90,29.39,10.0,SE,8.1,18.4,0.07,Rain,Light Rain,140,2013-03-20 13:53:00
7:53 AM,46.0,43.0,89,29.39,10.0,SE,11.5,20.7,0.04,Rain,Light Rain,140,2013-03-20 14:53:00
8:33 AM,46.4,44.6,93,29.39,4.0,SSE,13.8,-,0.03,Rain,Rain,160,2013-03-20 15:33:00
8:43 AM,46.4,44.6,93,29.38,4.0,SSE,17.3,23.0,0.05,Rain,Light Rain,160,2013-03-20 15:43:00
8:53 AM,48.0,45.0,89,29.38,5.0,South,20.7,28.8,0.06,Rain,Light Rain,170,2013-03-20 15:53:00
9:44 AM,50.0,46.4,87,29.39,10.0,SSW,29.9,39.1,0.01,,Mostly Cloudy,200,2013-03-20 16:44:00
9:53 AM,48.9,45.0,86,29.41,10.0,SSW,23.0,39.1,0.01,,Scattered Clouds,200,2013-03-20 16:53:00
10:53 AM,50.0,41.0,71,29.46,10.0,South,34.5,47.2,N/A,,Clear,190,2013-03-20 17:53:00
11:53 AM,50.0,39.9,68,29.51,10.0,South,33.4,42.6,N/A,,Partly Cloudy,190,2013-03-20 18:53:00
12:53 PM,48.9,39.9,71,29.56,10.0,SSW,27.6,44.9,0.00,,Mostly Cloudy,200,2013-03-20 19:53:00
1:53 PM,50.0,39.0,66,29.57,10.0,SSW,28.8,38.0,N/A,,Scattered Clouds,200,2013-03-20 20:53:00
2:53 PM,48.9,39.0,69,29.59,10.0,SSW,25.3,44.9,N/A,,Mostly Cloudy,200,2013-03-20 21:53:00
3:01 PM,48.2,39.2,71,29.59,10.0,SSW,31.1,38.0,N/A,,Mostly Cloudy,200,2013-03-20 22:01:00
3:53 PM,48.0,39.0,71,29.65,10.0,SW,17.3,27.6,0.00,Rain,Light Rain,220,2013-03-20 22:53:00
4:53 PM,44.1,39.0,82,29.69,10.0,North,6.9,-,0.06,Rain,Light Rain,10,2013-03-20 23:53:00
5:53 PM,42.1,39.0,89,29.74,10.0,NE,3.5,-,0.04,,Overcast,50,2013-03-21 00:53:00
6:53 PM,43.0,37.0,80,29.78,10.0,ENE,6.9,-,N/A,,Overcast,60,2013-03-21 01:53:00
7:53 PM,42.1,36.0,79,29.83,10.0,ESE,12.7,16.1,0.00,Rain,Light Rain,110,2013-03-21 02:53:00
8:53 PM,37.0,33.1,86,29.91,5.0,Variable,6.9,-,0.18,Rain,Light Rain,0,2013-03-21 03:53:00
9:21 PM,37.4,32.0,81,29.92,10.0,South,5.8,-,0.02,Rain,Light Rain,180,2013-03-21 04:21:00
9:40 PM,35.6,30.2,81,29.93,10.0,SSE,9.2,-,0.02,,Overcast,150,2013-03-21 04:40:00
9:53 PM,35.1,32.0,89,29.95,10.0,SSE,10.4,-,0.02,,Overcast,150,2013-03-21 04:53:00
10:53 PM,35.6,33.8,93,29.98,10.0,SSE,6.9,-,N/A,,Mostly Cloudy,160,2013-03-21 05:53:00
11:53 PM,36.0,33.1,89,30.01,10.0,Variable,4.6,-,N/A,,Overcast,0,2013-03-21 06:53:00